GFSNW_850_dewp_219.txt.gz
Dewpoint
-11 -12 -13 -12 -11 -10 -3 -2 -1 -2 -6 -2 -1 -1 -6 -8 -11 -12 -10 -10 -5 -4 -4 -1 -1 1 3 2 2 4 4 6 6 5 4 3 5 6 6 8 9 9 9 9
-10 -10 -10 -9 -7 -9 -3 -3 -5 -2 -1 -1 -3 -5 -6 -8 -8 -10 -9 -8 -6 -5 -1 0 -2 3 0 -1 -1 3 3 6 5 7 4 3 4 5 6 6 6 7 8 9
-9 -7 -6 -6 -5 -5 -2 -3 -2 -5 -2 -5 -4 -5 -5 -7 -9 -10 -6 -4 -5 -9 -8 -6 -1 -1 1 -3 -4 -1 1 4 4 5 2 3 5 3 4 5 6 7 7 7
-12 -11 -9 -8 -7 -6 -3 -3 -3 -6 -3 -4 -4 -6 -6 -7 -7 -8 -7 -3 -3 -1 -1 -5 -4 -4 -2 -6 -3 -2 -1 3 2 0 -3 -4 -3 -1 2 4 4 5 6 5
-5 -6 -7 -8 -6 -6 -2 -2 -3 -4 -5 -7 -6 -7 -3 -6 -9 -9 -5 -6 -6 -1 1 -2 -2 -5 -6 -5 -6 -2 -1 -1 -2 -3 -6 -5 -5 -6 -6 -4 -3 2 -0 -0
-6 -10 -10 -8 -7 -6 -3 -2 -2 -2 -5 -6 -4 -6 -8 -7 -9 -9 -8 -7 -5 -4 -4 -5 -9 -9 -9 -9 -7 -6 -5 -4 -0 -2 -7 -6 -1 -1 -5 -7 -8 -7 -5 -7
-7 -6 -5 -4 -4 -4 -2 -1 -2 -2 -2 -4 -3 -6 -8 -9 -9 -6 -9 -8 -6 -8 -5 -8 -10 -10 -11 -10 -9 -9 -1 -3 -4 -3 -7 -1 -8 -10 -10 -10 -11 -12 -11 -11
-5 -5 -4 -5 -5 -5 -2 -2 -2 -3 -2 -6 -5 -5 -6 -6 -6 -6 -8 -10 -9 -7 -6 -4 -6 -8 -10 -11 -12 -10 -10 -5 -2 -2 -5 -8 -11 -11 -10 -9 -10 -13 -10 -12
-6 -6 -5 -4 -4 -5 -3 -2 -3 -2 -1 -5 -6 -6 -7 -4 -6 -6 -8 -10 -8 -7 -5 -4 -3 -7 -11 -11 -11 -10 -11 -9 -2 -3 -2 -5 -4 -9 -11 -12 -9 -9 -10 -11
-8 -8 -7 -6 -6 -5 -4 -1 -2 -2 -2 -5 -5 -5 -4 -7 -7 -6 -7 -7 -6 -5 -4 -2 -4 -5 -9 -8 -9 -9 -3 -2 -1 -1 -2 -5 -5 -9 -10 -7 -3 -7 -8 -8
-14 -13 -9 -7 -7 -6 -4 -2 -4 -3 -3 -5 -5 -5 -5 -5 -5 -4 -4 -4 -2 -4 -1 -2 -2 -2 -5 -5 -8 -7 -4 -0 -1 -2 -1 0 -8 -9 -7 -3 -5 -7 -8 -8
-12 -14 -15 -9 -7 -6 -5 -3 -3 -4 -3 -3 -3 -3 -3 -4 -4 -3 -4 -4 -3 -2 -2 -0 -2 -2 -4 -6 -4 -8 -3 -5 -1 1 2 -4 -6 -5 -6 -6 -7 -7 -7 -7
-12 -13 -15 -15 -10 -7 -5 -2 -2 -3 -3 -4 -4 -3 -3 -3 -3 -3 -2 -3 -1 -1 -2 -1 -1 -1 0 0 -3 -4 -5 -8 -4 -5 -7 -7 -8 -8 -7 -7 -7 -7 -7 -7
-15 -16 -16 -16 -16 -9 -6 -3 -2 -2 -2 -3 -6 -4 -4 -2 -1 -2 -3 -3 -1 -1 -1 -1 -2 -3 -9 -5 -7 -8 -3 -7 -7 -6 -9 -10 -9 -8 -6 -6 -6 -7 -7 -7
-16 -18 -18 -17 -16 -13 -4 -3 -3 -3 -3 -3 -4 -5 -4 -3 -2 -2 -3 -3 -3 -3 -2 -2 -4 -9 -9 -11 -10 -11 -13 -11 -7 -3 -6 -7 -9 -7 -6 -6 -7 -7 -7 -7
-18 -17 -17 -18 -17 -10 -2 -3 -3 -3 -3 -2 -4 -7 -5 -3 -2 -3 -3 -2 -3 -3 -4 -5 -7 -7 -7 -7 -10 -13 -13 -12 -11 -10 -8 -8 -7 -6 -7 -7 -7 -7 -6 -6
-17 -16 -17 -19 -18 -7 -2 -2 -2 -5 -3 -2 -4 -6 -5 -5 -3 -4 -3 -3 -3 -3 -4 -5 -6 -7 -6 -7 -8 -13 -12 -12 -9 -7 -8 -9 -8 -8 -8 -7 -7 -7 -7 -7
-17 -17 -18 -18 -12 -5 -3 -2 -5 -5 -3 -3 -4 -7 -8 -6 -5 -4 -3 -3 -2 -4 -5 -6 -6 -8 -8 -7 -10 -11 -11 -11 -8 -7 -7 -8 -8 -8 -8 -7 -7 -7 -7 -6
-16 -18 -15 -4 -3 -3 -2 -5 -7 -3 -3 -3 -6 -6 -6 -7 -7 -5 -4 -5 -4 -5 -6 -7 -8 -10 -8 -7 -8 -8 -7 -9 -7 -7 -7 -7 -7 -8 -8 -7 -6 -5 -6 -5
-17 -7 -5 -5 -3 -5 -7 -3 -2 -3 -3 -3 -4 -8 -5 -6 -6 -5 -6 -5 -6 -7 -8 -10 -9 -10 -10 -5 -3 -4 -5 -6 -6 -6 -7 -6 -6 -7 -7 -6 -5 -5 -5 -4
-6 -5 -6 -6 -6 -6 -4 -3 -4 -6 -5 -6 -6 -7 -7 -5 -5 -6 -7 -5 -7 -7 -8 -9 -9 -7 -4 -3 -2 -4 -5 -5 -6 -6 -6 -6 -6 -7 -7 -6 -5 -4 -4 -4
-7 -9 -5 -5 -5 -6 -6 -5 -8 -7 -9 -8 -7 -8 -10 -9 -7 -6 -7 -8 -9 -7 -8 -6 -6 -3 -5 -3 -3 -4 -5 -5 -6 -7 -7 -6 -7 -7 -6 -6 -5 -4 -5 -4
-4 -4 -4 -6 -5 -4 -4 -5 -9 -7 -9 -8 -9 -7 -7 -9 -7 -5 -6 -4 -5 -9 -5 -6 -6 -6 -4 -4 -4 -4 -5 -5 -6 -6 -7 -6 -6 -5 -4 -5 -5 -5 -5 -5
-6 -6 -5 -5 -4 -7 -8 -12 -12 -9 -8 -8 -9 -8 -6 -6 -4 -5 -3 -7 -7 -6 -6 -8 -4 -4 -4 -4 -3 -4 -4 -4 -5 -6 -6 -5 -7 -7 -7 -5 -5 -5 -5 -5
-7 -7 -4 -6 -9 -9 -8 -9 -8 -8 -9 -8 -6 -7 -8 -6 -4 -6 -7 -6 -5 -8 -8 -2 -3 -5 -5 -5 -4 -4 -4 -4 -4 -4 -4 -4 -6 -7 -6 -6 -6 -5 -5 -5
-7 -8 -6 -7 -6 -2 -4 -5 -6 -8 -7 -7 -8 -8 -6 -5 -7 -7 -6 -9 -9 -9 -5 -3 -3 -4 -4 -4 -4 -4 -3 -3 -3 -4 -4 -5 -5 -5 -4 -5 -5 -5 -5 -5
-8 -7 -7 -7 -6 -4 -4 -4 -7 -8 -7 -5 -9 -5 -6 -8 -7 -7 -9 -7 -4 -5 -4 -3 -4 -4 -4 -4 -5 -4 -4 -4 -3 -4 -4 -5 -5 -5 -5 -6 -6 -6 -5 -6

GFSNW_850_dewp_222.txt.gz
Dewpoint
-10 -10 -10 -10 -10 -12 -2 -4 -2 -2 -1 -2 -2 -1 -5 -6 -6 -8 -10 -11 -8 -7 -5 -1 -3 -4 3 -1 -0 3 2 5 4 2 4 3 4 5 5 8 8 7 9 7
-7 -6 -5 -7 -8 -8 -2 -3 -4 -4 -1 -2 -1 -7 -9 -11 -8 -7 -7 -7 -8 -7 -3 -1 -2 0 1 -3 -2 -0 2 4 4 2 5 3 5 5 5 5 6 6 7 7
-10 -7 -7 -8 -9 -9 -3 -2 -2 -6 -3 -4 -4 -4 -3 -8 -10 -10 -6 -6 -8 -6 -3 -6 -4 -5 1 -2 -5 -3 -0 3 4 4 5 3 6 5 5 5 6 7 7 6
-10 -10 -10 -11 -9 -8 -3 -1 -2 -6 -2 -3 -6 -7 -6 -6 -8 -12 -11 -3 -3 0 -1 -2 -4 -3 0 -2 -3 0 0 2 1 -0 -3 -2 -1 1 2 4 4 6 5 7
-5 -6 -10 -12 -11 -11 -1 -2 -2 -4 -4 -7 -7 -6 -3 -5 -9 -7 -6 -8 -8 -2 -1 -1 -0 -0 -5 -5 -7 -7 -3 1 -0 -1 -4 -4 2 -2 -5 -1 1 1 0 -0
-10 -8 -7 -6 -5 -4 -2 -2 -2 -1 -5 -6 -4 -4 -4 -4 -8 -9 -11 -9 -5 -4 -5 -5 -7 -7 -10 -9 -8 -8 -8 -4 -3 -3 -7 -3 -1 -1 -5 -6 -7 -5 -2 -5
-7 -6 -5 -5 -6 -5 -1 -2 -2 -1 -3 -5 -5 -6 -5 -2 -8 -6 -8 -10 -9 -9 -8 -6 -7 -10 -11 -11 -11 -11 -2 -3 -4 -3 -6 -2 -9 -9 -10 -8 -9 -12 -13 -12
-5 -6 -5 -5 -5 -5 -2 -2 -1 -2 -2 -6 -6 -7 -7 -8 -8 -8 -8 -10 -11 -9 -7 -4 -4 -8 -10 -11 -12 -13 -12 -5 -2 -2 -5 -8 -11 -6 -9 -10 -8 -9 -10 -7
-7 -7 -7 -7 -7 -6 -4 -2 -2 -4 -2 -5 -7 -4 -6 -4 -4 -5 -9 -9 -8 -7 -5 -3 -4 -7 -10 -9 -12 -10 -10 -8 -1 -2 -2 -4 -2 -8 -11 -13 -5 -7 -8 -8
-11 -10 -9 -8 -8 -8 -6 -2 -2 -1 -2 -5 -5 -4 -3 -5 -5 -4 -3 -4 -4 -5 -3 -3 -4 -4 -9 -6 -8 -10 -5 -2 -1 -1 -2 -6 -4 -5 -10 -9 0 -6 -8 -7
-13 -14 -15 -14 -9 -9 -7 -2 -2 -2 -2 -4 -4 -4 -5 -5 -5 -2 -4 -4 -2 -3 -1 -0 -1 -2 -4 -4 -8 -8 -3 -2 -0 0 -1 -0 -4 -6 -3 -2 -6 -7 -8 -8
-12 -13 -14 -16 -15 -10 -8 -3 -2 -2 -2 -4 -4 -4 -2 -2 -3 -3 -4 -3 -3 -1 -1 -2 -2 -2 -1 -2 -3 -4 -5 -6 -3 -2 0 -1 -6 -4 -7 -8 -8 -8 -8 -8
-13 -15 -16 -16 -16 -15 -8 -3 -3 -2 -2 -4 -5 -4 -5 -3 -3 -3 -3 -4 -2 -2 -1 -1 -2 1 -1 -1 -1 1 -3 -1 -3 -3 -1 0 -6 -8 -8 -7 -7 -7 -8 -8
-14 -16 -18 -18 -17 -16 -12 -2 -3 -3 -2 -2 -5 -5 -4 -3 -3 -2 -3 -3 -2 -1 -2 -1 -2 -2 -5 -5 -8 -9 -4 -5 -4 -3 -2 -1 -5 -5 -7 -7 -8 -8 -7 -7
-15 -19 -18 -18 -18 -17 -11 -2 -4 -4 -3 -3 -4 -5 -4 -5 -3 -3 -3 -3 -3 -3 -2 -2 -3 -6 -8 -9 -11 -10 -12 -11 -7 -3 -5 -7 -8 -7 -8 -8 -7 -8 -6 -6
-18 -18 -18 -18 -18 -17 -2 -2 -2 -4 -3 -2 -3 -7 -7 -6 -4 -4 -4 -3 -4 -4 -3 -5 -6 -6 -7 -7 -10 -13 -12 -13 -11 -9 -9 -10 -10 -9 -8 -8 -8 -8 -7 -8
-18 -18 -18 -18 -19 -16 -3 -2 -2 -4 -5 -2 -4 -6 -7 -6 -6 -3 -3 -4 -4 -4 -4 -4 -5 -6 -6 -7 -8 -8 -13 -13 -12 -10 -9 -10 -9 -9 -9 -8 -8 -8 -7 -7
-18 -17 -18 -18 -16 -10 -5 -3 -5 -8 -4 -3 -3 -7 -9 -6 -7 -4 -3 -2 -2 -2 -3 -6 -7 -8 -6 -6 -10 -10 -10 -8 -10 -9 -9 -9 -9 -9 -9 -8 -7 -7 -6 -6
-17 -18 -14 -9 -4 -3 -2 -3 -5 -6 -3 -3 -5 -6 -4 -8 -8 -5 -4 -4 -3 -6 -4 -7 -8 -8 -8 -7 -7 -7 -6 -6 -3 -8 -8 -8 -7 -8 -8 -8 -6 -6 -5 -5
-12 -5 -2 -5 -2 -4 -6 -2 -2 -2 -2 -3 -4 -8 -4 -7 -6 -4 -5 -5 -4 -6 -9 -9 -10 -9 -5 -3 -3 -5 -6 -6 -7 -6 -6 -6 -6 -7 -7 -6 -6 -5 -5 -4
-3 -4 -5 -4 -6 -6 -3 -2 -4 -5 -5 -6 -6 -7 -5 -6 -5 -6 -8 -5 -7 -6 -9 -8 -10 -7 -1 -3 -3 -5 -5 -6 -6 -7 -7 -7 -7 -7 -7 -6 -6 -5 -4 -5
-5 -7 -6 -6 -6 -6 -5 -5 -7 -7 -9 -8 -8 -6 -7 -10 -7 -7 -7 -6 -9 -8 -8 -6 -6 -3 -5 -3 -3 -5 -5 -5 -5 -7 -7 -6 -7 -6 -6 -5 -5 -5 -5 -5
-3 -4 -3 -4 -5 -3 -4 -5 -7 -6 -10 -9 -10 -7 -7 -9 -7 -5 -6 -4 -5 -8 -5 -6 -6 -4 -5 -3 -4 -4 -5 -5 -5 -6 -6 -6 -6 -4 -5 -8 -6 -5 -5 -5
-5 -6 -5 -5 -4 -6 -7 -9 -11 -10 -9 -9 -9 -9 -5 -5 -4 -5 -4 -7 -7 -6 -6 -7 -3 -5 -4 -4 -3 -4 -4 -4 -4 -4 -4 -4 -4 -5 -5 -7 -7 -6 -5 -5
-7 -8 -5 -5 -9 -8 -9 -9 -9 -9 -10 -10 -7 -7 -8 -6 -5 -6 -7 -7 -6 -8 -8 -2 -4 -5 -6 -5 -4 -3 -3 -4 -4 -4 -4 -5 -5 -5 -5 -5 -5 -5 -5 -5
-7 -8 -7 -6 -5 -1 -2 -5 -6 -8 -9 -8 -7 -8 -6 -6 -7 -8 -7 -8 -8 -8 -3 -2 -3 -4 -4 -4 -4 -4 -4 -4 -4 -4 -4 -3 -4 -4 -4 -5 -4 -5 -6 -6
-8 -7 -8 -7 -6 -3 -3 -3 -5 -7 -7 -2 -7 -5 -6 -8 -7 -8 -9 -5 -2 -4 -4 -3 -4 -4 -4 -4 -5 -5 -6 -5 -5 -6 -7 -6 -7 -7 -7 -6 -5 -4 -4 -6

GFSNW_850_dewp_228.txt.gz
Dewpoint
-16 -17 -16 -14 -17 -17 -7 -3 -5 -2 -2 -3 -5 -7 -4 -6 -6 -7 -7 -5 -5 -4 -4 -2 -3 -2 -3 -3 0 2 -0 2 2 3 3 4 4 4 5 4 6 6 6 4
-17 -16 -16 -18 -20 -15 -5 -2 -3 -1 -2 -6 -7 -5 -4 -6 -5 -6 -6 -6 -6 -4 -2 -2 -2 -3 -5 -1 1 2 2 3 2 1 3 -0 4 5 5 4 5 4 6 5
-15 -16 -17 -19 -18 -13 -4 -2 -6 -3 -1 -4 -4 -4 -4 -4 -6 -6 -5 -5 -7 -5 -4 -4 -2 -3 -5 -2 -2 -2 1 1 1 2 3 3 2 4 4 3 2 4 6 5
-15 -17 -17 -18 -16 -12 -2 -2 -5 -3 -7 -5 -4 -4 -5 -4 -4 -5 -4 -5 -6 -4 -5 -3 -3 -5 -3 -5 -2 -2 -1 -1 -1 -3 0 -3 -3 -1 1 3 4 4 5 6
-16 -12 -13 -13 -9 -6 -2 -3 -2 -3 -3 -3 -5 -5 -5 -4 -4 -4 -4 -5 -5 -5 -6 -4 -4 -3 -3 -2 -3 -4 -3 -3 -2 -3 -7 -7 -4 -3 -4 -0 4 4 2 3
-12 -11 -10 -9 -8 -4 -2 -1 -2 -3 -4 -4 -5 -4 -3 -3 -3 -5 -6 -4 -4 -5 -6 -8 -7 -6 -5 -4 -3 -3 -2 -4 -3 -3 -5 -4 -3 -4 -3 -2 1 2 3 -1
-11 -9 -7 -7 -7 -5 -3 -3 -2 -3 -7 -5 -4 -4 -3 -3 -3 -3 -5 -5 -3 -4 -6 -7 -8 -8 -6 -5 -5 -4 -4 -5 -3 -2 -3 -8 -1 -4 -5 -4 -5 -4 -1 -0
-8 -7 -6 -7 -8 -7 -3 -2 -2 -4 -5 -4 -4 -4 -3 -4 -4 -4 -4 -5 -4 -5 -5 -5 -3 -4 -7 -8 -7 -6 -6 -4 -4 -4 -1 -4 -0 1 0 -2 -1 -5 -4 -4
-7 -9 -9 -10 -10 -10 -6 -3 -1 -2 -4 -6 -4 -3 -3 -3 -4 -4 -4 -5 -6 -5 -4 -5 -2 -3 -5 -5 -5 -6 -4 -5 -4 -4 -3 -2 2 1 -2 -4 2 1 -5 -5
-13 -14 -15 -16 -13 -11 -7 -2 -2 -3 -4 -5 -4 -4 -3 -3 -3 -4 -4 -3 -3 -4 -4 -3 -1 -0 -2 -1 -2 -2 -3 -3 -5 -3 -5 -4 -1 -1 -4 0 1 -2 -5 -6
-15 -14 -15 -16 -17 -16 -13 -6 -3 -3 -4 -4 -5 -5 -5 -4 -3 -2 -4 -5 -5 -4 -3 -4 -2 -0 -0 1 1 0 -1 -4 -5 -3 -2 -3 -0 -1 1 0 -2 -5 -6 -6
-14 -14 -15 -17 -17 -17 -17 -8 -3 -2 -3 -6 -7 -5 -4 -3 -3 -2 -2 -4 -3 -2 -6 -7 -3 -1 -0 -0 -0 -2 0 1 1 -3 -1 -0 0 1 -2 -2 -5 -6 -7 -7
-12 -15 -16 -18 -18 -18 -17 -15 -4 -3 -3 -5 -7 -5 -7 -4 -3 -3 -2 -3 -3 -3 -2 -4 -3 -1 -3 -1 -2 -1 -2 -1 -0 1 -1 -1 -1 -2 -6 -7 -7 -7 -7 -7
-13 -15 -18 -20 -19 -19 -18 -17 -3 -2 -3 -4 -7 -10 -6 -6 -3 -3 -4 -3 -3 -2 -2 -2 -4 -2 -4 -3 -4 -4 -4 -4 -2 0 -0 -1 -1 -2 -5 -7 -8 -8 -7 -7
-12 -16 -19 -19 -19 -19 -19 -17 -5 -3 -2 -4 -4 -7 -9 -5 -5 -4 -3 -3 -3 -3 -4 -4 -2 -3 -4 -5 -6 -6 -6 -9 -4 -3 -4 -3 -6 -7 -8 -8 -8 -7 -7 -7
-14 -17 -18 -19 -19 -19 -15 -4 -3 -5 -3 -3 -4 -7 -8 -6 -5 -4 -4 -4 -3 -4 -4 -4 -4 -5 -4 -4 -5 -7 -7 -8 -8 -8 -8 -9 -9 -8 -8 -8 -8 -7 -7 -6
-15 -19 -19 -19 -19 -19 -8 -4 -2 -3 -3 -5 -4 -5 -7 -6 -6 -6 -4 -4 -3 -3 -4 -3 -4 -5 -4 -4 -5 -7 -7 -6 -7 -8 -8 -8 -8 -8 -8 -8 -7 -8 -7 -6
-18 -19 -18 -19 -19 -19 -17 -6 -3 -3 -6 -4 -3 -4 -6 -7 -6 -6 -4 -3 -3 -3 -3 -3 -4 -5 -4 -4 -6 -6 -6 -6 -7 -6 -7 -8 -7 -7 -7 -7 -7 -8 -7 -6
-19 -18 -12 -13 -11 -4 -3 -3 -3 -4 -6 -4 -3 -4 -6 -6 -6 -5 -4 -3 -4 -3 -3 -3 -4 -5 -4 -5 -4 -5 -6 -6 -5 -5 -6 -6 -7 -7 -7 -7 -6 -6 -7 -7
-13 -5 -4 -7 -5 -3 -3 -5 -5 -5 -4 -4 -3 -5 -5 -6 -6 -5 -5 -4 -4 -4 -5 -5 -5 -5 -4 -4 -5 -5 -6 -6 -6 -7 -6 -6 -6 -7 -6 -6 -6 -5 -6 -6
-4 -3 -3 -3 -4 -7 -7 -4 -4 -4 -3 -3 -3 -5 -5 -7 -5 -5 -7 -6 -5 -5 -5 -6 -5 -5 -3 -3 -6 -5 -5 -6 -6 -7 -7 -6 -6 -6 -6 -5 -6 -7 -9 -8
-5 -5 -8 -5 -6 -6 -4 -5 -4 -4 -3 -5 -4 -5 -6 -6 -5 -6 -6 -5 -5 -5 -6 -7 -7 -5 -3 -4 -5 -5 -5 -5 -5 -5 -6 -5 -5 -4 -5 -5 -5 -6 -6 -6
-5 -6 -6 -5 -6 -5 -4 -7 -4 -6 -7 -8 -5 -5 -8 -7 -7 -5 -5 -6 -6 -7 -8 -6 -5 -4 -3 -4 -4 -4 -4 -4 -5 -5 -4 -4 -4 -5 -5 -5 -5 -4 -5 -5
-4 -3 -7 -6 -8 -6 -5 -5 -6 -8 -9 -9 -8 -6 -6 -5 -5 -6 -5 -4 -5 -6 -7 -5 -5 -3 -4 -5 -6 -5 -5 -5 -5 -7 -7 -6 -5 -5 -7 -6 -6 -5 -6 -6
-4 -4 -5 -5 -7 -7 -6 -7 -7 -7 -8 -8 -6 -5 -6 -5 -6 -4 -5 -4 -5 -5 -6 -7 -4 -4 -4 -4 -4 -4 -6 -9 -8 -8 -7 -6 -6 -7 -8 -9 -9 -7 -5 -4
-4 -4 -5 -6 -5 -6 -5 -5 -6 -6 -7 -7 -7 -6 -6 -5 -4 -4 -5 -5 -7 -7 -4 -4 -4 -4 -4 -4 -5 -7 -8 -8 -7 -7 -7 -7 -9 -10 -10 -10 -7 -8 -8 -8
-5 -6 -7 -8 -7 -6 -7 -3 -4 -5 -6 -6 -5 -7 -6 -6 -6 -6 -5 -5 -7 -4 -4 -4 -5 -5 -5 -4 -5 -7 -7 -8 -8 -9 -11 -11 -11 -11 -11 -11 -11 -11 -12 -12

GFSNW_850_dewp_231.txt.gz
Dewpoint
-18 -18 -17 -16 -15 -11 -11 -8 -5 -1 -1 -5 -6 -7 -4 -6 -5 -7 -6 -5 -5 -5 -4 -2 -3 -3 -2 -6 -2 1 2 2 2 0 2 2 4 4 4 5 4 4 5 4
-16 -15 -16 -18 -19 -14 -14 -4 -2 -1 -1 -8 -8 -5 -4 -5 -5 -6 -5 -6 -6 -7 -4 -3 -3 -3 -4 -5 -4 1 1 0 -0 -2 2 -0 2 2 4 4 4 4 5 4
-15 -17 -19 -21 -20 -15 -18 -6 -6 -2 -1 -4 -4 -4 -4 -4 -6 -5 -5 -4 -6 -6 -5 -5 -4 -5 -5 -6 -5 -4 -2 -0 -3 -1 -0 2 1 -2 -1 3 4 4 5 4
-15 -16 -19 -20 -19 -15 -19 -5 -6 -4 -7 -6 -5 -4 -4 -4 -4 -6 -5 -4 -6 -4 -5 -5 -4 -5 -6 -6 -6 -3 -2 -1 -2 -4 -4 -6 -5 -3 -2 4 4 4 5 5
-14 -13 -14 -15 -14 -14 -14 -4 -4 -3 -4 -4 -4 -6 -6 -4 -4 -4 -4 -4 -4 -4 -6 -6 -5 -5 -5 -4 -4 -5 -3 -1 -3 -3 -8 -5 -1 -2 -2 1 4 3 4 5
-10 -10 -12 -12 -11 -10 -6 -3 -3 -4 -5 -5 -5 -5 -4 -3 -3 -4 -5 -4 -4 -4 -5 -5 -3 -4 -5 -6 -4 -4 -2 -3 -3 -4 -6 -5 0 1 -2 -1 0 2 3 4
-9 -10 -12 -13 -13 -11 -8 -4 -3 -3 -7 -5 -4 -5 -4 -3 -3 -3 -4 -5 -4 -5 -5 -5 -7 -6 -6 -6 -4 -4 -3 -4 -3 -2 -4 -4 2 0 -1 -1 1 -2 -1 -3
-10 -10 -11 -11 -12 -11 -9 -3 -3 -4 -4 -4 -4 -4 -3 -4 -4 -4 -5 -6 -5 -4 -5 -4 -4 -5 -6 -8 -6 -4 -4 -4 -5 -4 -1 -4 2 1 1 2 1 0 -1 -4
-10 -11 -12 -11 -12 -12 -9 -3 -2 -3 -4 -6 -5 -4 -4 -4 -4 -4 -4 -5 -5 -5 -4 -4 -2 -1 -3 -3 -3 -6 -4 -5 -5 -5 -4 -0 0 -1 -1 -1 1 1 -3 -5
-13 -14 -15 -14 -13 -13 -7 -4 -3 -4 -5 -5 -4 -5 -4 -4 -4 -3 -4 -3 -4 -4 -5 -3 -2 -1 -0 1 0 -0 -1 -3 -5 -6 -6 -3 -1 0 -1 1 -0 -1 -2 -4
-16 -17 -18 -18 -18 -15 -12 -5 -4 -3 -3 -5 -6 -5 -4 -5 -3 -5 -4 -6 -5 -4 -5 -6 -6 -3 -3 -0 -1 0 -0 -1 -5 -5 -3 -1 -0 -1 -0 -1 -2 -5 -6 -6
-17 -17 -17 -17 -17 -18 -16 -6 -3 -2 -2 -6 -7 -8 -5 -5 -4 -3 -2 -3 -3 -3 -7 -9 -4 -3 -5 -4 -3 -3 -2 -1 0 -0 -1 -2 -0 -0 -2 -1 -5 -6 -7 -7
-14 -16 -18 -18 -18 -18 -18 -14 -8 -4 -3 -5 -6 -5 -5 -8 -4 -3 -3 -3 -3 -3 -2 -4 -5 -2 -5 -4 -4 -3 -4 -2 -1 -1 -2 -1 -1 -2 -6 -7 -7 -8 -7 -7
-14 -16 -17 -20 -20 -20 -19 -17 -8 -4 -3 -4 -9 -9 -8 -6 -6 -3 -3 -4 -3 -2 -2 -2 -4 -2 -4 -3 -4 -4 -6 -5 -2 -1 -2 -1 -2 -3 -2 -7 -8 -8 -8 -7
-13 -16 -19 -19 -20 -20 -20 -18 -12 -3 -3 -5 -6 -10 -8 -6 -6 -5 -4 -3 -3 -2 -3 -4 -3 -4 -4 -4 -6 -6 -7 -8 -5 -4 -6 -3 -6 -5 -7 -8 -8 -8 -7 -7
-13 -17 -18 -19 -19 -19 -17 -4 -4 -4 -3 -4 -5 -9 -8 -6 -5 -4 -4 -3 -3 -3 -4 -5 -4 -4 -4 -4 -5 -8 -6 -8 -7 -8 -8 -6 -7 -7 -8 -8 -8 -7 -8 -7
-13 -18 -19 -19 -20 -19 -11 -6 -3 -4 -3 -7 -4 -5 -8 -6 -6 -5 -4 -4 -3 -3 -4 -4 -4 -5 -3 -4 -4 -8 -7 -6 -7 -7 -8 -8 -8 -8 -8 -7 -7 -7 -9 -9
-15 -19 -18 -19 -19 -19 -16 -3 -3 -4 -4 -5 -6 -5 -6 -6 -6 -6 -5 -4 -3 -3 -4 -4 -4 -4 -4 -3 -6 -6 -6 -6 -6 -6 -7 -8 -8 -8 -7 -7 -7 -7 -8 -9
-18 -15 -15 -15 -13 -6 -4 -4 -4 -3 -5 -5 -4 -4 -7 -6 -5 -5 -4 -3 -4 -3 -4 -3 -4 -5 -4 -5 -7 -5 -6 -6 -6 -6 -6 -7 -7 -7 -6 -6 -7 -6 -6 -7
-15 -5 -4 -6 -4 -3 -3 -3 -3 -4 -5 -6 -4 -4 -5 -6 -6 -6 -5 -5 -4 -4 -4 -4 -4 -4 -7 -5 -5 -5 -6 -6 -6 -6 -6 -6 -6 -7 -6 -6 -6 -5 -6 -7
-5 -3 -3 -3 -3 -4 -6 -4 -4 -4 -3 -4 -3 -4 -6 -8 -5 -5 -6 -7 -5 -5 -5 -5 -5 -5 -4 -4 -5 -5 -6 -6 -7 -7 -7 -6 -6 -6 -6 -5 -5 -5 -5 -6
-4 -4 -6 -5 -5 -6 -5 -4 -4 -4 -4 -4 -4 -4 -5 -7 -5 -6 -6 -5 -5 -4 -7 -7 -7 -6 -4 -4 -5 -5 -5 -5 -5 -5 -5 -4 -4 -4 -4 -5 -5 -5 -5 -5
-5 -7 -6 -7 -6 -5 -4 -5 -4 -6 -6 -7 -5 -5 -5 -5 -6 -6 -5 -6 -5 -7 -8 -7 -6 -6 -3 -5 -4 -4 -4 -4 -5 -5 -6 -6 -6 -4 -5 -5 -7 -7 -7 -7
-6 -4 -8 -7 -8 -6 -5 -5 -6 -8 -8 -8 -6 -5 -6 -5 -6 -6 -5 -5 -5 -6 -6 -5 -6 -5 -3 -4 -5 -4 -5 -6 -7 -10 -10 -9 -7 -6 -7 -8 -8 -9 -8 -7
-4 -3 -5 -6 -7 -7 -7 -7 -7 -8 -6 -7 -6 -5 -6 -5 -7 -5 -6 -4 -5 -5 -5 -7 -6 -5 -4 -5 -6 -6 -5 -7 -9 -10 -9 -9 -7 -7 -8 -10 -10 -9 -8 -9
-4 -4 -4 -6 -5 -7 -7 -7 -8 -7 -6 -7 -7 -6 -7 -6 -5 -4 -5 -4 -6 -7 -6 -6 -6 -5 -5 -5 -5 -4 -6 -8 -8 -9 -10 -9 -10 -11 -11 -11 -12 -13 -13 -12
-4 -5 -6 -6 -6 -6 -5 -4 -4 -6 -6 -7 -6 -8 -7 -7 -6 -6 -5 -6 -7 -8 -7 -7 -6 -6 -7 -5 -4 -4 -6 -7 -8 -10 -10 -10 -11 -11 -13 -15 -12 -8 -7 -7

GFSNW_850_dewp_234.txt.gz
Dewpoint
-22 -23 -21 -16 -12 -7 -7 -8 -4 -1 -4 -6 -7 -8 -5 -5 -5 -6 -6 -5 -4 -5 -5 -3 -4 -3 -5 -7 -4 -3 0 1 -1 -3 -5 0 -1 2 2 4 4 3 -2 4
-22 -20 -18 -15 -10 -7 -10 -3 -1 -1 -3 -8 -8 -5 -5 -5 -6 -6 -5 -5 -6 -6 -4 -4 -5 -5 -5 -7 -5 -1 -0 -0 -0 -3 -5 -3 -3 -2 -0 3 4 5 3 4
-20 -20 -20 -19 -11 -10 -13 -6 -6 -2 -3 -4 -5 -4 -4 -4 -6 -5 -5 -5 -5 -6 -4 -5 -4 -5 -6 -8 -7 -6 -4 -2 -1 0 -1 -3 -0 1 3 3 4 4 4 3
-19 -21 -22 -19 -15 -12 -16 -7 -6 -4 -7 -6 -5 -5 -4 -4 -3 -5 -5 -4 -6 -4 -4 -4 -5 -6 -6 -7 -7 -5 -4 -1 -2 -3 -5 -5 0 1 1 3 4 5 4 4
-19 -20 -19 -18 -12 -13 -14 -6 -4 -4 -4 -4 -5 -5 -6 -4 -4 -4 -4 -4 -5 -4 -5 -6 -4 -5 -4 -4 -5 -5 -5 -1 -3 -3 -7 -6 -0 1 -0 0 2 4 4 3
-18 -17 -17 -16 -14 -12 -9 -5 -7 -10 -5 -5 -6 -5 -4 -3 -3 -4 -4 -4 -4 -4 -4 -5 -5 -4 -4 -3 -3 -4 -3 -2 -3 -3 -6 -4 -0 2 2 0 1 1 1 1
-13 -14 -14 -11 -11 -12 -18 -11 -10 -8 -7 -5 -4 -5 -5 -4 -3 -3 -4 -4 -4 -5 -5 -5 -6 -5 -3 -3 -4 -5 -3 -3 -3 -2 -4 -3 0 0 2 1 1 1 1 0
-11 -12 -13 -12 -13 -12 -14 -12 -11 -7 -6 -5 -5 -5 -4 -4 -4 -4 -4 -6 -5 -4 -5 -4 -4 -5 -5 -6 -6 -5 -4 -4 -5 -4 -2 -5 -2 -0 1 2 1 1 -1 -3
-10 -11 -12 -13 -13 -12 -12 -9 -11 -10 -7 -6 -5 -4 -4 -4 -4 -5 -4 -5 -5 -5 -4 -5 -2 -1 -1 -1 -2 -5 -5 -6 -6 -5 -4 0 -1 -1 -1 1 -0 -1 -2 -5
-10 -11 -13 -14 -14 -11 -10 -7 -10 -9 -7 -6 -6 -5 -5 -4 -4 -5 -5 -3 -5 -5 -7 -5 -3 -2 -2 -1 -1 -0 -1 -3 -6 -6 -3 -2 -3 -1 -2 -1 0 -2 -5 -5
-14 -16 -16 -16 -16 -14 -10 -9 -8 -9 -6 -6 -6 -6 -4 -5 -4 -5 -4 -7 -5 -4 -6 -8 -7 -3 -4 -3 -3 -1 -0 -2 -3 -5 -8 -5 -3 -2 -2 -3 -2 -5 -6 -6
-18 -19 -19 -20 -20 -19 -14 -10 -6 -9 -12 -6 -7 -7 -7 -7 -5 -3 -2 -4 -4 -3 -8 -10 -5 -4 -6 -3 -4 -4 -3 -2 -1 -3 -6 -5 -2 -0 -2 -1 -5 -7 -7 -7
-17 -17 -19 -19 -19 -19 -19 -14 -9 -10 -7 -8 -9 -9 -6 -7 -5 -3 -3 -3 -3 -3 -3 -5 -4 -3 -5 -5 -5 -5 -5 -2 -2 -3 -4 -3 -4 -3 -6 -7 -8 -7 -7 -7
-17 -17 -19 -21 -21 -20 -19 -18 -15 -8 -5 -5 -9 -5 -5 -8 -8 -4 -3 -3 -3 -2 -2 -2 -4 -3 -4 -3 -4 -4 -6 -6 -3 -3 -4 -3 -5 -4 -3 -3 -8 -8 -7 -7
-16 -18 -21 -21 -21 -21 -21 -19 -15 -5 -6 -6 -8 -11 -10 -7 -8 -6 -3 -3 -2 -2 -3 -4 -4 -4 -4 -4 -6 -5 -7 -8 -4 -5 -7 -5 -6 -5 -4 -7 -8 -8 -8 -10
-16 -19 -21 -20 -20 -21 -21 -17 -14 -5 -4 -3 -6 -11 -10 -6 -6 -5 -4 -5 -3 -2 -3 -5 -5 -5 -4 -3 -4 -8 -8 -7 -8 -8 -7 -7 -6 -7 -8 -8 -8 -7 -8 -9
-16 -20 -20 -19 -21 -21 -13 -7 -4 -5 -3 -4 -6 -7 -8 -6 -6 -5 -4 -4 -3 -2 -3 -4 -5 -5 -3 -4 -3 -8 -8 -7 -7 -6 -6 -8 -7 -8 -8 -8 -7 -7 -7 -8
-16 -19 -18 -19 -20 -20 -14 -3 -4 -4 -3 -5 -6 -5 -6 -7 -6 -5 -5 -3 -3 -3 -3 -4 -4 -4 -4 -3 -5 -6 -7 -7 -6 -6 -7 -7 -8 -8 -8 -7 -7 -7 -6 -6
-19 -18 -20 -18 -15 -7 -9 -4 -3 -3 -5 -7 -4 -4 -7 -6 -5 -5 -4 -3 -4 -3 -4 -4 -4 -4 -3 -4 -6 -7 -6 -7 -6 -6 -6 -7 -7 -7 -7 -7 -6 -6 -6 -6
-16 -14 -6 -5 -3 -4 -3 -3 -3 -3 -4 -4 -5 -5 -5 -6 -6 -6 -5 -5 -5 -4 -4 -4 -4 -3 -6 -7 -7 -6 -6 -6 -6 -5 -6 -6 -6 -6 -6 -6 -6 -5 -5 -5
-9 -4 -3 -3 -3 -4 -4 -5 -5 -5 -3 -4 -5 -5 -6 -9 -6 -5 -6 -7 -6 -5 -5 -5 -4 -5 -6 -5 -5 -5 -6 -6 -6 -7 -7 -6 -6 -6 -6 -5 -5 -5 -6 -7
-5 -4 -5 -4 -4 -5 -5 -6 -4 -4 -4 -5 -4 -4 -5 -7 -6 -6 -6 -5 -5 -4 -7 -7 -7 -7 -5 -4 -5 -5 -5 -6 -6 -5 -5 -5 -5 -5 -5 -4 -5 -5 -6 -6
-5 -6 -8 -6 -5 -5 -5 -5 -4 -6 -5 -5 -4 -5 -5 -5 -5 -6 -5 -6 -6 -6 -9 -7 -6 -9 -4 -4 -5 -5 -5 -5 -4 -5 -7 -10 -10 -10 -7 -6 -7 -8 -9 -9
-6 -6 -9 -8 -9 -6 -6 -6 -6 -7 -8 -7 -5 -5 -6 -6 -6 -7 -6 -6 -5 -6 -7 -6 -6 -8 -5 -4 -5 -5 -5 -4 -5 -8 -10 -10 -10 -11 -9 -9 -10 -11 -10 -9
-5 -5 -6 -6 -8 -8 -7 -7 -7 -8 -6 -7 -6 -5 -6 -6 -7 -5 -6 -5 -5 -6 -6 -8 -8 -7 -5 -4 -5 -6 -6 -6 -6 -9 -9 -10 -13 -11 -10 -11 -12 -12 -13 -12
-5 -5 -4 -6 -6 -7 -7 -6 -7 -8 -7 -6 -7 -6 -7 -6 -5 -4 -6 -4 -6 -7 -6 -9 -7 -8 -7 -6 -6 -5 -5 -5 -6 -8 -8 -10 -11 -11 -11 -13 -15 -12 -9 -8
-5 -4 -4 -5 -6 -8 -7 -8 -9 -7 -6 -7 -6 -8 -7 -7 -6 -6 -5 -6 -8 -10 -9 -9 -9 -8 -8 -8 -6 -5 -5 -5 -5 -7 -8 -10 -10 -11 -13 -15 -13 -13 -9 -9

GFSNW_850_dewp_237.txt.gz
Dewpoint
-9 -11 -17 -21 -9 -13 -13 -8 -2 -5 -9 -6 -8 -4 -5 -5 -6 -6 -6 -5 -5 -5 -5 -5 -6 -6 -7 -8 -6 -4 -3 0 -1 -5 -7 -5 -4 1 2 3 4 5 3 4
-11 -20 -22 -13 -11 -13 -11 -3 -1 -3 -9 -4 -4 -5 -5 -5 -6 -6 -6 -6 -6 -6 -5 -3 -5 -6 -7 -7 -6 -3 -2 -2 -2 -5 -7 -5 -2 2 2 2 4 5 4 4
-20 -20 -18 -11 -10 -12 -14 -5 -3 -4 -6 -6 -5 -5 -5 -5 -6 -6 -6 -5 -5 -5 -5 -6 -4 -6 -7 -7 -7 -6 -6 -1 -2 -2 -2 -3 1 1 1 1 4 4 3 3
-18 -15 -12 -8 -10 -11 -15 -9 -4 -5 -3 -4 -4 -5 -5 -4 -4 -5 -5 -5 -6 -4 -3 -4 -5 -7 -6 -7 -6 -5 -6 -2 -3 -4 -5 -5 1 1 0 1 2 2 1 1
-18 -17 -12 -9 -8 -10 -15 -8 -5 -6 -4 -5 -5 -5 -4 -4 -4 -4 -6 -5 -5 -4 -3 -4 -3 -4 -5 -4 -5 -4 -5 -3 -4 -4 -8 -6 -4 -1 -1 0 1 0 -1 0
-20 -18 -16 -13 -12 -13 -14 -9 -10 -11 -5 -5 -5 -5 -5 -4 -3 -4 -4 -4 -3 -4 -5 -5 -4 -4 -4 -4 -3 -3 -4 -2 -3 -4 -7 -4 -2 1 1 -0 0 1 0 0
-18 -18 -19 -14 -13 -15 -17 -15 -14 -9 -4 -5 -5 -5 -5 -4 -4 -3 -4 -4 -4 -6 -5 -6 -6 -5 -4 -3 -4 -3 -3 -2 -3 -3 -5 -1 -1 -3 1 -1 -0 -0 -1 0
-14 -14 -14 -13 -13 -15 -17 -18 -16 -12 -4 -5 -5 -5 -5 -4 -4 -4 -4 -5 -5 -5 -6 -4 -4 -4 -6 -6 -5 -4 -5 -3 -2 -2 -3 -6 -3 -2 0 -0 -1 -2 -4 -5
-14 -14 -13 -14 -15 -14 -16 -16 -18 -16 -6 -5 -6 -4 -5 -3 -3 -5 -5 -5 -5 -5 -5 -4 -2 -2 -3 -4 -4 -5 -5 -6 -3 -2 -2 -1 -2 -3 -3 1 -1 -2 -6 -6
-12 -14 -15 -15 -16 -14 -15 -15 -16 -16 -8 -6 -8 -5 -5 -4 -4 -4 -4 -4 -5 -6 -5 -3 -2 -3 -3 -2 -2 -2 -3 -2 -1 -3 -1 -2 -4 -3 -4 -3 -1 -3 -6 -5
-13 -14 -15 -15 -15 -15 -16 -15 -16 -17 -9 -7 -8 -7 -6 -4 -5 -3 -4 -6 -4 -4 -4 -4 -4 -3 -3 -3 -3 -2 -1 -2 -1 -2 -3 -2 -4 -3 -2 -2 -2 -5 -6 -5
-15 -16 -16 -16 -16 -17 -16 -17 -18 -20 -17 -8 -7 -9 -7 -7 -5 -4 -3 -5 -4 -4 -5 -6 -4 -3 -3 -3 -3 -5 -3 -1 -1 -3 -3 -6 -3 -1 -2 -2 -1 -6 -6 -6
-19 -19 -19 -20 -20 -20 -20 -18 -18 -21 -16 -11 -12 -13 -12 -6 -5 -4 -4 -4 -3 -3 -3 -4 -4 -3 -4 -2 -3 -3 -5 -2 -1 -2 -6 -3 -4 -4 -4 -7 -7 -8 -7 -7
-18 -19 -20 -20 -20 -21 -20 -19 -18 -16 -13 -9 -8 -6 -6 -6 -7 -5 -4 -4 -3 -4 -2 -3 -3 -3 -5 -3 -4 -4 -5 -6 -4 -3 -5 -6 -9 -7 -5 -3 -6 -8 -7 -9
-18 -20 -22 -23 -23 -21 -20 -19 -16 -11 -12 -8 -10 -6 -6 -8 -8 -8 -4 -3 -3 -2 -2 -3 -3 -4 -4 -4 -4 -4 -7 -7 -4 -5 -7 -6 -6 -7 -6 -5 -8 -8 -8 -9
-18 -20 -22 -23 -22 -22 -21 -20 -15 -8 -13 -14 -7 -10 -7 -8 -7 -7 -6 -3 -2 -2 -3 -4 -5 -5 -4 -3 -3 -7 -8 -8 -8 -7 -8 -6 -7 -6 -7 -8 -8 -7 -7 -8
-19 -20 -21 -23 -22 -19 -15 -10 -10 -6 -10 -9 -9 -8 -8 -7 -5 -5 -4 -4 -4 -3 -3 -3 -4 -4 -3 -3 -4 -7 -9 -8 -7 -7 -6 -7 -8 -7 -8 -8 -8 -7 -7 -7
-19 -20 -21 -22 -21 -16 -5 -4 -5 -5 -6 -6 -5 -6 -6 -6 -5 -5 -4 -3 -2 -3 -3 -4 -4 -4 -3 -2 -5 -6 -6 -7 -7 -7 -7 -7 -8 -8 -8 -8 -7 -7 -6 -6
-19 -21 -20 -18 -14 -12 -4 -3 -4 -5 -5 -7 -4 -5 -5 -6 -5 -6 -5 -3 -2 -3 -3 -3 -4 -3 -2 -4 -6 -7 -7 -7 -7 -6 -6 -7 -7 -7 -7 -7 -7 -6 -6 -6
-17 -9 -7 -4 -3 -5 -4 -4 -4 -4 -3 -5 -5 -6 -4 -6 -5 -5 -5 -5 -3 -3 -4 -3 -3 -3 -5 -7 -7 -7 -8 -6 -6 -6 -6 -6 -7 -7 -6 -6 -6 -6 -5 -5
-7 -5 -3 -3 -4 -5 -5 -5 -5 -6 -5 -5 -5 -7 -6 -7 -4 -4 -6 -5 -5 -4 -5 -5 -4 -3 -6 -7 -6 -6 -6 -6 -6 -6 -7 -6 -6 -5 -5 -6 -5 -5 -5 -5
-6 -5 -4 -4 -4 -6 -6 -5 -5 -5 -6 -5 -4 -4 -8 -8 -8 -5 -6 -5 -5 -4 -6 -5 -4 -6 -9 -5 -5 -5 -6 -6 -6 -6 -5 -5 -7 -10 -10 -10 -7 -6 -8 -9
-5 -7 -5 -6 -5 -5 -6 -6 -6 -4 -5 -5 -4 -4 -6 -6 -5 -5 -5 -4 -4 -6 -5 -5 -5 -9 -8 -5 -5 -5 -5 -5 -5 -5 -5 -9 -10 -11 -13 -10 -9 -11 -12 -12
-8 -7 -8 -9 -8 -6 -6 -7 -6 -6 -7 -6 -5 -5 -5 -6 -5 -6 -5 -6 -5 -4 -4 -5 -5 -10 -9 -5 -5 -5 -6 -5 -5 -5 -8 -9 -9 -13 -12 -11 -11 -12 -15 -14
-8 -6 -8 -7 -9 -8 -7 -7 -7 -7 -7 -7 -5 -5 -5 -5 -6 -5 -6 -5 -4 -4 -5 -5 -10 -8 -8 -6 -5 -5 -5 -5 -5 -6 -7 -8 -9 -11 -11 -11 -14 -16 -13 -12
-7 -6 -5 -5 -6 -7 -8 -7 -7 -7 -7 -6 -6 -5 -5 -5 -5 -4 -5 -6 -5 -6 -5 -11 -10 -9 -9 -8 -7 -7 -5 -6 -6 -5 -7 -7 -9 -10 -11 -12 -17 -13 -12 -10
-6 -6 -5 -5 -6 -7 -8 -9 -7 -8 -6 -4 -6 -5 -5 -6 -4 -4 -5 -4 -5 -10 -11 -11 -9 -9 -9 -9 -8 -8 -6 -5 -5 -5 -5 -7 -8 -10 -10 -16 -15 -13 -11 -10

GFSNW_850_dewp_240.txt.gz
Dewpoint
5 5 -3 -6 -8 -9 -11 -11 -0 -7 -12 -4 -1 -2 -8 -9 -8 -7 -8 -8 -7 -7 -7 -6 -8 -8 -10 -10 -8 -5 -5 0 -1 -7 -8 -6 -4 1 3 3 4 6 2 2
3 -3 -7 -9 -9 -11 -14 -2 -5 -8 -13 -1 -2 -7 -7 -8 -8 -8 -8 -8 -8 -8 -6 -4 -8 -7 -9 -8 -7 -3 -3 -2 -2 -6 -7 -7 -1 2 2 2 5 5 2 2
-1 -4 -7 -6 -8 -11 -20 -3 0 -6 -5 -8 -8 -8 -8 -7 -7 -7 -8 -8 -7 -7 -7 -7 -5 -7 -9 -7 -7 -5 -6 -2 -2 -1 -2 -2 2 1 1 0 3 2 3 2
-4 -8 -8 -5 -9 -15 -24 -8 -2 -7 -2 -4 -8 -8 -9 -8 -8 -7 -7 -7 -8 -5 -3 -7 -8 -8 -6 -8 -6 -6 -5 -1 -4 -5 -7 -5 1 0 -0 1 1 1 1 0
-10 -13 -7 -8 -12 -16 -21 -8 -4 -6 -9 -8 -7 -5 -6 -8 -6 -8 -8 -8 -7 -5 -3 -4 -2 -3 -6 -5 -6 -5 -5 -2 -4 -4 -8 -6 0 -2 -2 -2 -0 0 -1 -0
-15 -15 -7 -10 -13 -16 -17 -10 -5 -4 -7 -8 -7 -7 -7 -7 -7 -6 -7 -7 -5 -3 -6 -6 -5 -5 -5 -5 -3 -3 -3 -3 -4 -5 -8 -7 -2 1 -1 -2 -2 -2 -1 -0
-10 -9 -8 -11 -14 -15 -18 -9 -9 -3 -3 -7 -7 -8 -7 -6 -6 -6 -6 -5 -6 -5 -4 -4 -4 -5 -5 -5 -5 -4 -1 -2 -4 -3 -7 -2 -0 -2 -1 -2 -3 -3 -5 -6
-11 -11 -10 -11 -11 -16 -18 -19 -18 -5 -3 -8 -7 -7 -7 -6 -5 -6 -7 -5 -4 -3 -5 -5 -7 -7 -8 -7 -7 -6 -5 -3 -1 -2 -6 -5 -6 -1 1 -2 -2 -5 -7 -9
-19 -18 -15 -13 -15 -16 -15 -20 -23 -16 -3 -6 -8 -6 -7 -6 -6 -6 -6 -4 -4 -4 -5 -3 -4 -5 -5 -7 -7 -7 -5 -4 -2 -2 -5 -3 -5 -6 -4 0 -2 -6 -8 -9
-19 -17 -15 -15 -15 -16 -17 -20 -24 -20 -5 -7 -7 -6 -5 -5 -5 -5 -5 -4 -4 -5 -4 -3 -4 -5 -4 -5 -5 -5 -5 -3 -2 -2 -2 -5 -8 -7 -7 -4 -2 -6 -7 -9
-13 -13 -13 -14 -13 -13 -17 -19 -21 -20 -5 -5 -6 -4 -5 -5 -5 -5 -3 -4 -2 -4 -1 -2 -2 -3 -2 -2 -5 -4 -3 -2 -4 -5 -5 -5 -8 -9 -4 -3 -4 -7 -7 -8
-14 -15 -16 -15 -15 -15 -17 -19 -20 -23 -10 -6 -8 -5 -5 -4 -4 -4 -2 -3 -2 -2 -1 -2 -3 -2 -2 -2 -5 -6 -4 -4 -3 -4 -4 -8 -6 -5 -5 -5 -5 -6 -6 -7
-15 -16 -16 -17 -18 -18 -20 -20 -19 -21 -6 -6 -6 -5 -7 -6 -7 -6 -4 -3 -2 -2 -2 -3 -3 -1 -4 -4 -5 -4 -8 -5 -3 -1 -8 -8 -8 -6 -6 -5 -5 -6 -7 -7
-20 -21 -22 -22 -22 -22 -22 -23 -22 -19 -9 -7 -7 -11 -7 -5 -5 -5 -4 -4 -4 -3 -1 -3 -4 -5 -6 -6 -6 -6 -8 -6 -8 -7 -9 -9 -9 -8 -6 -5 -4 -6 -6 -7
-20 -21 -21 -21 -21 -22 -22 -24 -23 -21 -7 -4 -7 -5 -6 -6 -7 -6 -4 -2 -2 -3 -3 -4 -4 -5 -5 -7 -5 -6 -9 -9 -7 -6 -9 -7 -8 -7 -5 -4 -6 -6 -6 -6
-21 -23 -23 -23 -22 -22 -21 -21 -16 -17 -11 -7 -6 -7 -5 -8 -6 -7 -3 -2 -2 -3 -4 -5 -6 -4 -5 -6 -7 -9 -9 -9 -9 -9 -7 -6 -6 -7 -6 -6 -6 -6 -5 -6
-22 -23 -23 -24 -23 -22 -15 -10 -11 -15 -16 -7 -9 -7 -5 -4 -3 -2 -2 -2 -2 -3 -3 -4 -6 -6 -4 -6 -6 -10 -10 -9 -9 -7 -6 -7 -8 -8 -7 -6 -6 -6 -6 -5
-21 -22 -23 -21 -12 -8 -4 -9 -8 -11 -6 -7 -7 -5 -6 -4 -3 -3 -2 -1 -2 -2 -4 -3 -5 -5 -4 -3 -8 -8 -8 -8 -8 -7 -5 -6 -7 -7 -7 -6 -6 -6 -7 -6
-20 -22 -20 -17 -8 -4 -3 -5 -6 -8 -6 -5 -7 -6 -2 -5 -4 -3 -2 -2 -2 -2 -4 -5 -5 -5 -3 -6 -8 -9 -9 -6 -7 -6 -6 -6 -7 -7 -7 -7 -7 -7 -7 -6
-19 -12 -5 -3 -4 -4 -4 -4 -3 -3 -3 -4 -8 -6 -3 -5 -4 -3 -3 -3 -4 -4 -5 -4 -4 -5 -8 -8 -8 -7 -6 -6 -5 -5 -5 -6 -6 -6 -5 -6 -6 -6 -6 -6
-7 -2 -3 -3 -4 -5 -4 -3 -5 -6 -6 -6 -6 -6 -5 -5 -4 -4 -5 -4 -6 -5 -6 -6 -7 -5 -6 -6 -6 -4 -5 -5 -5 -5 -5 -5 -5 -4 -6 -7 -7 -7 -7 -7
-5 -4 -4 -5 -4 -5 -7 -5 -6 -7 -6 -6 -7 -8 -9 -6 -5 -6 -5 -6 -6 -6 -6 -4 -4 -7 -8 -5 -4 -4 -4 -4 -4 -5 -4 -4 -6 -10 -7 -8 -8 -8 -11 -13
-5 -5 -4 -5 -5 -4 -6 -4 -6 -4 -6 -5 -5 -6 -8 -7 -4 -3 -5 -3 -4 -7 -4 -4 -6 -8 -9 -4 -4 -4 -4 -5 -4 -4 -4 -6 -9 -9 -11 -11 -13 -13 -14 -18
-5 -7 -4 -5 -4 -7 -8 -10 -7 -6 -5 -5 -6 -4 -3 -3 -3 -4 -2 -6 -6 -5 -4 -7 -6 -10 -8 -6 -4 -4 -5 -6 -4 -3 -4 -7 -9 -9 -11 -11 -12 -15 -19 -15
-7 -7 -9 -8 -10 -7 -6 -6 -6 -6 -5 -4 -4 -4 -4 -4 -2 -5 -5 -4 -4 -6 -7 -5 -9 -7 -7 -5 -5 -5 -4 -5 -6 -6 -5 -6 -8 -8 -10 -10 -11 -19 -16 -14
-7 -7 -6 -6 -6 -5 -5 -6 -5 -5 -5 -4 -4 -4 -2 -3 -5 -4 -4 -7 -6 -6 -7 -7 -7 -7 -6 -5 -8 -7 -7 -7 -5 -5 -5 -5 -6 -8 -9 -10 -12 -19 -17 -13
-7 -7 -6 -5 -5 -5 -5 -6 -6 -5 -5 -2 -5 -2 -3 -4 -4 -3 -6 -4 -5 -7 -6 -6 -7 -6 -6 -8 -9 -9 -8 -7 -6 -5 -5 -5 -6 -7 -8 -9 -10 -18 -16 -14

GFSNW_850_dewp_246.txt.gz
Dewpoint
7 6 7 7 6 2 -6 0 0 -0 -4 -1 2 2 -9 -13 -13 -10 -11 -10 -9 -9 -10 -11 -9 -10 -11 -9 -8 -5 -5 2 1 -2 -4 -5 -3 0 2 5 2 0 -0 1
8 5 6 6 6 2 -1 -1 -1 -2 -0 2 1 -5 -11 -12 -11 -10 -9 -9 -10 -10 -7 -6 -10 -9 -9 -7 -7 -4 -3 -0 -0 -5 -4 -4 -1 -2 -1 1 1 1 0 1
7 6 6 6 4 -2 2 -2 -0 -1 0 0 -5 -7 -9 -10 -11 -10 -10 -10 -10 -9 -9 -9 -7 -11 -9 -7 -7 -6 -4 0 1 -0 1 -2 0 -0 -1 -1 1 -0 1 -1
5 5 6 5 2 1 2 -1 -1 -6 -0 -0 -4 -7 -8 -9 -8 -10 -10 -9 -8 -8 -2 -8 -9 -10 -8 -8 -9 -5 -5 1 -4 -6 -4 -5 -3 -2 -1 0 0 -0 1 -3
5 5 6 4 2 2 2 -3 -5 -9 -6 -5 -5 -3 -5 -8 -9 -8 -8 -7 -8 -5 -2 -3 -1 -5 -7 -8 -8 -8 -8 -4 -6 -5 -6 -5 -4 -4 -3 -3 -2 -2 -3 -3
3 5 4 2 2 2 -4 -4 -8 -5 -5 -5 -3 -4 -7 -9 -9 -9 -10 -10 -7 -3 -8 -9 -8 -7 -6 -7 -6 -5 -5 -4 -4 -4 -7 -3 0 0 -3 -4 -3 -5 -4 -3
6 6 4 2 3 -0 -15 -8 -5 -4 -2 -4 -4 -9 -11 -10 -8 -8 -9 -8 -6 -6 -6 -6 -7 -7 -7 -7 -7 -7 -4 -5 -4 -2 -2 2 0 -3 -4 -4 -7 -9 -10 -11
5 4 1 1 -4 -10 -5 -4 -6 -4 -1 -6 -7 -9 -10 -10 -9 -8 -8 -6 -4 -4 -6 -3 -5 -4 -5 -6 -9 -9 -8 -5 -2 -2 -2 -3 -9 -5 -1 -3 -1 -8 -10 -11
4 2 -2 -4 -8 -10 -3 -4 -5 -5 -3 -4 -9 -8 -9 -4 -5 -6 -6 -5 -4 -3 -3 -1 -1 -7 -9 -9 -8 -12 -10 -8 -1 -3 -3 -5 -9 -13 -13 -5 2 -5 -10 -10
3 0 -4 -6 -3 -3 -4 -3 -3 -5 -6 -10 -10 -7 -4 -7 -6 -4 -6 -5 -3 -2 -0 1 -5 -7 -10 -6 -9 -10 -9 -7 -3 -3 -3 -5 -10 -12 -11 -2 -2 -8 -10 -10
1 -2 -10 -8 -5 -6 -5 -4 -4 -6 -7 -10 -9 -8 -8 -8 -7 -2 -5 -3 -2 -1 3 1 -4 -2 -4 -8 -9 -12 -8 -7 -4 -6 -4 -4 -10 -10 -7 -7 -9 -10 -9 -10
-2 -8 -9 -9 -10 -6 -5 -6 -6 -7 -6 -5 -5 -3 -4 -4 -7 -5 -4 -1 -1 1 3 2 -3 -5 -2 -6 -6 -7 -6 -4 -5 -6 -1 -7 -8 -10 -11 -9 -8 -7 -8 -9
-7 -8 -9 -9 -11 -6 -5 -4 -5 -6 -3 -3 -4 -4 -4 -2 -3 -3 -4 -5 -3 -2 -1 -1 -1 -3 -6 -4 -4 -6 -9 -11 -6 -4 -8 -9 -11 -10 -6 -9 -10 -9 -9 -9
-7 -7 -8 -7 -12 -6 -9 -7 -6 -7 -7 -3 -2 -4 -4 -5 -3 -3 -2 -3 -4 -3 -4 -4 -4 -5 -9 -8 -9 -8 -9 -10 -7 -8 -10 -8 -7 -7 -8 -9 -9 -9 -9 -9
-7 -7 -8 -11 -12 -10 -5 -5 -5 -8 -7 -1 -5 -5 -4 -3 -4 -4 -3 -3 -4 -5 -5 -5 -5 -8 -7 -7 -7 -7 -9 -9 -5 -4 -10 -8 -9 -8 -9 -9 -9 -10 -9 -8
-10 -10 -11 -12 -12 -14 -13 -9 -9 -6 -6 -7 -5 -4 -4 -4 -3 -3 -3 -3 -3 -5 -6 -7 -7 -7 -5 -8 -7 -10 -11 -11 -11 -11 -12 -10 -9 -9 -9 -9 -10 -9 -8 -8
-15 -16 -17 -17 -14 -10 -10 -12 -7 -6 -6 -6 -5 -5 -5 -5 -4 -4 -4 -4 -4 -5 -5 -6 -6 -7 -5 -4 -4 -7 -9 -11 -11 -11 -11 -10 -10 -8 -9 -10 -10 -9 -9 -9
-22 -21 -20 -15 -10 -11 -8 -9 -8 -9 -9 -8 -4 -4 -5 -5 -5 -5 -5 -4 -5 -5 -6 -7 -6 -7 -6 -4 -7 -10 -12 -12 -11 -11 -10 -10 -10 -9 -11 -10 -9 -9 -8 -7
-23 -22 -18 -10 -5 -2 -5 -8 -7 -6 -5 -5 -6 -3 -2 -5 -6 -5 -5 -4 -2 -5 -5 -5 -6 -5 -3 -5 -7 -8 -9 -10 -9 -10 -10 -10 -9 -9 -10 -9 -8 -7 -7 -9
-11 -7 -7 -2 -2 -12 -12 -10 -6 -2 -6 -6 -6 -6 -2 -6 -4 -3 -4 -5 -4 -2 -4 -6 -5 -4 -7 -7 -7 -8 -8 -9 -9 -9 -9 -8 -7 -7 -7 -7 -7 -7 -8 -9
-3 -2 -2 -3 -5 -3 -4 -2 -4 -5 -5 -7 -7 -6 -4 -5 -3 -3 -4 -3 -5 -4 -5 -5 -5 -4 -5 -7 -6 -8 -8 -8 -8 -9 -8 -6 -6 -6 -6 -7 -7 -8 -8 -9
-3 -5 -4 -3 -3 -5 -4 -4 -6 -7 -7 -8 -8 -6 -7 -5 -4 -5 -5 -5 -7 -4 -5 -5 -3 -5 -8 -8 -6 -8 -7 -7 -8 -7 -7 -6 -5 -5 -7 -7 -8 -7 -9 -9
-3 -4 -4 -4 -4 -2 -3 -3 -5 -3 -7 -7 -7 -3 -5 -4 -5 -5 -5 0 -3 -7 -3 -3 -4 -7 -9 -9 -8 -7 -7 -6 -6 -6 -6 -5 -4 -6 -6 -6 -8 -8 -8 -9
-6 -5 -3 -3 -3 -5 -7 -8 -7 -6 -6 -7 -6 -5 -7 -5 -5 -3 -2 -5 -6 -3 -3 -3 -3 -7 -9 -9 -7 -6 -5 -5 -5 -6 -5 -5 -4 -5 -6 -6 -7 -7 -8 -8
-8 -8 -4 -7 -7 -7 -6 -4 -5 -6 -5 -7 -6 -5 -5 -4 -1 -4 -5 -4 -4 -5 -5 0 -7 -9 -9 -9 -7 -6 -5 -4 -4 -7 -4 -4 -4 -4 -4 -5 -7 -7 -7 -8
-9 -10 -8 -8 -6 -2 -3 -4 -5 -6 -6 -6 -5 -5 -2 -3 -4 -5 -3 -5 -4 -4 -5 -5 -8 -9 -9 -8 -7 -6 -5 -4 -4 -2 -3 -3 -3 -3 -3 -4 -5 -6 -6 -7
-10 -8 -6 -5 -5 -2 -2 -3 -5 -5 -5 -1 -4 -0 -3 -6 -5 -4 -5 -3 -1 -5 -5 -6 -8 -8 -8 -7 -6 -5 -5 -7 -6 -3 -4 -4 -3 -2 -2 -3 -4 -5 -6 -5